THOR ABLESTAR DEB, 320

Orbit data source: Space-Track

THOR ABLESTAR DEB, 320 is space debris in LEO originally from a launch on Thu, 29 Jun 1961 UTC launched from the Air Force Eastern Test Range (AFETR). Debris objects in space refer to the collection of defunct objects orbiting the Earth. Examples of debris include non-operational satellites, rocket bodies, and fragments generated from explosions, collisions, or faulty payload assembly.

Loading next visibility...
Identifier
320, 1961-015CW
Orbit
LEO
Country
Flag of USUS
Related business
Manufacturer
Unknown
Mission
Spacecraft
Bus & Motor
Unknown
Mass
Unknown
Launch date (UTC)
1961-06-29 (65 years ago)
Launch vehicle
Unknown
Launch site
Air Force Eastern Test Range (AFETR)
Object type
Payload
Rocket body
Debris
Shape & HBR
Unknown shape, 0.2 m
Radar Cross Section
Medium (>0.1 m² and <1 m²)

Expand to show TLE details & history
Last TLE update: 20 hours ago

TLE from 20 hours ago
0 THOR ABLESTAR DEB
1 00320U 61015CW  26034.39804787  .00000258  00000-0  12321-3 0  9996
2 00320  66.9053  32.6353 0128016 129.0529 232.2046 14.29475449349233
Epoch: 2026-02-03T09:33Z
TLE epoch observation values (Epoch: 2026-02-03T09:33:11.335Z)
Latitude
-0.00006°
Longitude
115.75849°
Altitude
852.604 km
Speed
7.397 km/s
True Right ascension
02h 10m 32s
True Declination
0° 00' 00"
Sunlit
Object was in daylight at epoch
Visualization orbit readout
Latitude
Unknown
Longitude
Unknown
Altitude
Unknown
Speed
Unknown
Apparent Right ascension
Unknown
Apparent Declination
Unknown
Sunlit
N/A
Visualization observer readout
Local Sidereal Time
07:26:24
Azimuth
Unknown
Elevation
Unknown
Doppler factor
Unknown
Orbital elements
Apogee altitude
883.623 km
Perigee altitude
700.049 km
Semi-major axis
7,169.973 km
Eccentricity
0.0128
Inclination
66.9053°
RAAN
32.6353°
Arg. of periapsis
129.0529°
True anomaly
231.05674°
Mean anomaly
232.2046°
Eccentric anomaly
231.62954°
Mean motion
3.57492 °/min
Orbital period
100.7 mins
BSTAR
0.00012321
Loading maneuver chart data...
Computing Atmospheric mass density...

Documentation

Showing up to 5 results
|